Starlink 2640

operational
NORAD ID: 48438 Int'l Des: 2021-040 Owner: SPXS Country: US Constellation: starlink
LEOCIRCULARSTARLINK_TYPE

关于 Starlink 2640

正在加载描述...

实时位置

正在加载3D地球...

即将过境

高度历史

Altitude vs Time

uPlot chart will show altitude changes over time

两行轨道根数

1 48438U 21040L 25299.76025459 .00000922 00000-0 80808-4 0 9990
2 48438 53.0561 63.1146 0001383 101.4179 258.6966 15.06394055246437
Epoch: Oct 26, 2025 • Age: 11 hours

当前状态

高度 553.8 km
速度 7.58 km/s
星下点 -21.16°S, 70.71°W
发射日期 May 9, 2021
运行时间 4.4 years
类型 internet

技术详情

分类 Payload
质量 260.00 kg
干质量 248.00 kg
总质量 260.00 kg
长度 0.20 m
直径 2.80 m
跨度 9.00 m
形状 Box + pan
制造商 SPXS
平台类型 Starlink
阶段状态 In Orbit
所有者/国家 SPXS/US

大型星座

Loading constellations...